Weather Roundup
Issued by NWS Corpus Christi, TX

Home | Current Version | Previous Version | Text Only | Print | Product List | Glossary On
Versions: 1 2 3 4 5 6 7 8 9 10 11 12 13 14 15 16 17 18 19 20 21 22 23 24 25 26 27 28 29 30 31 32 33 34 35 36 37 38 39 40 41 42 43 44 45 46 47 48 49 50
000
ASUS44 KCRP 281210
HRRCRP

SOUTH TEXAS REGIONAL WEATHER ROUNDUP
NATIONAL WEATHER SERVICE CORPUS CHRISTI TX
700 AM CDT SUN AUG 28 2016


TXZ229>244-281300-
...CORPUS CHRISTI AREA OBSERVATIONS...

CITY           SKY/WX    TMP DP  RH WIND       PRES   REMARKS
CORPUS CHRISTI PTCLDY    75  74  96 NW6       29.94R
NAS CORPUS CHR NOT AVBL
ROCKPORT       CLEAR     77  73  87 CALM      29.94R
ALICE          CLEAR     75  73  93 NW3       29.95R
FALFURRIAS     CLEAR     73  70  91 N3        29.95R
$$

...VICTORIA AREA OBSERVATIONS...

CITY           SKY/WX    TMP DP  RH WIND       PRES   REMARKS
VICTORIA       CLEAR     70  69  97 N5        29.96R
BEEVILLE       MOCLDY    65  65 100 N3        29.97R FOG
PLEASANTON     CLEAR     73  71  95 CALM      29.99R FOG
SAN ANTONIO    CLEAR     74  70  87 NE3       30.01R
$$

...LAREDO AREA OBSERVATIONS...

CITY           SKY/WX    TMP DP  RH WIND       PRES   REMARKS
LAREDO         CLEAR     77  74  90 E6        29.97R
COTULLA        PTCLDY    76  71  85 CALM      29.98R
DEL RIO        CLEAR     76  71  85 E8        29.99R
MCALLEN        CLEAR     80  74  81 CALM      29.95R
HEBBRONVILLE   CLEAR     73  71  95 CALM      29.98S FOG
$$

...OTHER TEXAS OBSERVATIONS...

CITY           SKY/WX    TMP DP  RH WIND       PRES   REMARKS
BROWNSVILLE    CLEAR     75  74  96 CALM      29.94R
HOUSTON        CLOUDY    75  72  90 NE3       29.97R
COL. STATION   CLOUDY    75  73  93 NE7       30.00R
AUSTIN         PTCLDY    72  70  93 E7        30.01R
WACO           CLEAR     72  71  97 N5        30.04R FOG
FORT WORTH     PTCLDY    74  69  85 E5        30.04R
WICHITA FALLS  CLEAR     70  68  93 SE5       30.06R
LUBBOCK        CLOUDY    65  60  84 NW5       30.15R
EL PASO        PTCLDY    67  62  84 CALM      30.13R
$$

...MARINE OBSERVATIONS...

STATION/POSITION TIME  SKY/WX   TEMP    WIND        PRES    VSBY  WAVE   SWELL
                                AIR SEA DIR/SP/G                  HT/PER HT/PER
                 (UTC)          (F)     (DEG/KT/KT) (MB)    (MI)  (FT/S) (FT/S)
PORT ARANSAS     1200            80 86  360/  7/  8 1013.8R
BUOY 90 E PORT A 1050            83 85  310/  4/  6 1012.4          3/ 7   2/ 7
BUOY 45 SE BAFFI 1150            84 86  310/  4/  4 1013.0R         2/ 7   2/ 7
BUOY 200 E PT IS 1150            84 87  250/  2/  4 1011.9R         2/ 6   2/ 6
BUOY 15 E GALVES 1150            81 85   70/ 14/ 17 1013.1R         3/ 5   2/14
$$




USA.gov is the U.S. government's official web portal to all federal, state and local government web resources and services.